CZ-6A DEB, 60648

Orbit data source: Space-Track

CZ-6A DEB, 60648 is space debris in LEO originally from a launch on Tue, 06 Aug 2024 UTC launched from the Taiyaun Space Center, China (TSC). Debris objects in space refer to the collection of defunct objects orbiting the Earth. Examples of debris include non-operational satellites, rocket bodies, and fragments generated from explosions, collisions, or faulty payload assembly.

Loading next visibility...
Identifier
60648, 2024-140AZ
Orbit
LEO
Country
Flag of CNCN / PRC
Related business
Manufacturer
SAST
Mission
Spacecraft
Bus & Motor
Unknown
Mass
Unknown
Launch date (UTC)
2024-08-06 (2 years ago)
Launch vehicle
Unknown
Launch site
Taiyaun Space Center, China (TSC)
Object type
Payload
Rocket body
Debris
Shape & HBR
Unknown shape, 0.8 m
Radar Cross Section
Medium (>0.1 m² and <1 m²)

Expand to show TLE details & history
Last TLE update: 15 hours ago

TLE from 15 hours ago
0 CZ-6A DEB
1 60648U 24140AZ  26129.94382924  .00000883  00000-0  15539-3 0  9991
2 60648  89.0784 280.6474 0128926   4.3452 355.8846 14.61360631 93270
Epoch: 2026-05-09T22:39Z
TLE epoch observation values (Epoch: 2026-05-09T22:39:06.846Z)
Latitude
-0.00007°
Longitude
73.11487°
Altitude
601.007 km
Speed
7.607 km/s
True Right ascension
18h 42m 35s
True Declination
0° 00' 00"
Sunlit
Object was in full shadow at epoch
Visualization orbit readout
Latitude
Unknown
Longitude
Unknown
Altitude
Unknown
Speed
Unknown
Apparent Right ascension
Unknown
Apparent Declination
Unknown
Sunlit
N/A
Visualization observer readout
Local Sidereal Time
21:26:38
Azimuth
Unknown
Elevation
Unknown
Doppler factor
Unknown
Orbital elements
Apogee altitude
776.746 km
Perigee altitude
594.604 km
Semi-major axis
7,063.812 km
Eccentricity
0.01289
Inclination
89.0784°
RAAN
280.6474°
Arg. of periapsis
4.3452°
True anomaly
355.77684°
Mean anomaly
355.8846°
Eccentric anomaly
355.8309°
Mean motion
3.65582 °/min
Orbital period
98.47 mins
BSTAR
0.00015539
Loading maneuver chart data...
Computing Atmospheric mass density...
Loading historical data...
Loading historical data...
Loading historical data...
Loading historical data...
Loading historical data...
Loading historical data...
Loading historical data...

Documentation

Showing up to 5 results
|